De Queen, AR

7:14 PM CDT on June 24, 2017 (GMT -0500)
Helms Sevier County

Weather History for KDEQ - October, 2013

Change the Weather History Date:

Wednesday, October 2, 2013

  Actual Average Record
Temperature  
Mean Temperature 79 °F 67 °F  
Max Temperature 86 °F 80 °F 96 °F (1953)
Min Temperature 71 °F 55 °F 38 °F (1984)
Degree Days  
Heating Degree Days 0 2  
Month to date heating degree days 0 4  
Since 1 July heating degree days 0 13  
Cooling Degree Days 14 4  
Month to date cooling degree days 26 8  
Year to date cooling degree days 1962 1873  
Growing Degree Days 28 (Base 50)    
Moisture  
Dew Point 70 °F    
Average Humidity 79    
Maximum Humidity 100    
Minimum Humidity 57    
Precipitation  
Precipitation 0.00 in 0.16 in 0.35 in (1986)
Month to date precipitation 0.01 0.32  
Year to date precipitation 26.26 35.52  
Snow  
Snow 0.00 in - - ()
Month to date snowfall 0.0  
Since 1 July snowfall 0.0  
Since 1 September snowfall 0.0  
Snow Depth 0.00 in    
Sea Level Pressure  
Sea Level Pressure 29.97 in    
Wind  
Wind Speed 4 mph (SE)    
Max Wind Speed 12 mph    
Max Gust Speed 15 mph    
Visibility 9 miles    
Events      
T = Trace of Precipitation, MM = Missing Value Source: NWS Daily Summary

Daily Weather History Graph

Daily Weather History Graph

Search for Another Location

Airport or City:

Trip Planner

Search our weather history database for the weather conditions in past years. The results will help you decide how hot, cold, wet, or windy it might be!

Date:

Astronomy

Oct. 02, 2013 Rise Set
Actual Time 7:13 AM CDT 7:00 PM CDT
Civil Twilight 6:48 AM CDT 7:25 PM CDT
Nautical Twilight 6:19 AM CDT 7:54 PM CDT
Astronomical Twilight 5:49 AM CDT 8:23 PM CDT
Moon 4:52 AM CDT (10/2) 5:32 PM CDT (10/2)
Length of Visible Light 12h 37m
Length of Day
11h 47m
Waning Crescent, 6% of the Moon is Illuminated
Oct 2
Waning Crescent
Oct 4
New
Oct 11
First Quarter
Oct 18
Full
Oct 26
Last Quarter

Hourly Weather History & Observations

Time (CDT) Temp. Heat Index Dew Point Humidity Pressure Visibility Wind Dir Wind Speed Gust Speed Precip Events Conditions
12:53 AM 72.0 °F - 70.0 °F 93% 29.96 in 7.0 mi ENE 4.6 mph - N/A   Scattered Clouds
1:53 AM 72.0 °F - 70.0 °F 93% 29.96 in 8.0 mi East 3.5 mph - N/A   Partly Cloudy
2:53 AM 71.1 °F - 70.0 °F 96% 29.96 in 9.0 mi ENE 3.5 mph - N/A   Mostly Cloudy
3:32 AM 72.0 °F - 70.0 °F 93% 29.98 in 10.0 mi Variable 3.5 mph - N/A   Overcast
3:53 AM 72.0 °F - 70.0 °F 93% 29.96 in 10.0 mi East 3.5 mph - N/A   Overcast
4:53 AM 72.0 °F - 70.0 °F 93% 29.97 in 10.0 mi Calm Calm - N/A   Overcast
5:42 AM 72.0 °F - 70.0 °F 93% 29.99 in 10.0 mi ESE 3.5 mph - N/A   Overcast
5:53 AM 72.0 °F - 70.0 °F 93% 29.97 in 10.0 mi East 3.5 mph - N/A   Overcast
6:53 AM 72.0 °F - 71.1 °F 97% 29.99 in 9.0 mi East 3.5 mph - N/A   Overcast
7:53 AM 73.0 °F - 71.1 °F 93% 30.00 in 7.0 mi SSE 4.6 mph - N/A   Overcast
8:53 AM 73.0 °F - 71.1 °F 93% 30.01 in 8.0 mi Variable 5.8 mph - N/A   Overcast
9:51 AM 73.4 °F - 71.6 °F 94% 30.02 in 10.0 mi Calm Calm - N/A   Overcast
9:53 AM 73.9 °F - 71.1 °F 91% 30.01 in 10.0 mi Variable 4.6 mph - N/A   Overcast
10:53 AM 75.9 °F - 71.1 °F 85% 30.02 in 8.0 mi SSW 4.6 mph - N/A   Overcast
11:30 AM 77.0 °F - 72.0 °F 84% 30.04 in 8.0 mi Variable 3.5 mph - N/A   Overcast
11:53 AM 77.0 °F - 71.1 °F 82% 30.02 in 9.0 mi Variable 3.5 mph - N/A   Overcast
12:10 PM 78.1 °F - 71.1 °F 79% 30.03 in 9.0 mi WSW 5.8 mph - N/A   Overcast
12:20 PM 79.0 °F - 71.1 °F 77% 30.02 in 10.0 mi SW 5.8 mph - N/A   Mostly Cloudy
12:44 PM 80.1 °F 83.6 °F 71.1 °F 74% 30.01 in 10.0 mi Variable 5.8 mph - N/A   Mostly Cloudy
12:53 PM 81.0 °F 84.9 °F 71.1 °F 72% 29.99 in 10.0 mi SW 5.8 mph - N/A   Mostly Cloudy
1:04 PM 81.0 °F 84.9 °F 71.1 °F 72% 30.00 in 10.0 mi West 4.6 mph - N/A   Scattered Clouds
1:53 PM 84.0 °F 88.4 °F 70.0 °F 63% 29.96 in 10.0 mi SSW 8.1 mph - N/A   Mostly Cloudy
2:53 PM 82.0 °F 85.5 °F 69.1 °F 65% 29.93 in 10.0 mi South 4.6 mph - N/A   Clear
3:53 PM 86.0 °F 90.1 °F 69.1 °F 57% 29.91 in 10.0 mi South 5.8 mph - N/A   Clear
4:53 PM 84.9 °F 88.8 °F 69.1 °F 59% 29.90 in 10.0 mi ESE 6.9 mph - N/A   Scattered Clouds
5:53 PM 84.0 °F 88.4 °F 70.0 °F 63% 29.91 in 10.0 mi SE 6.9 mph - N/A   Scattered Clouds
6:53 PM 79.0 °F - 70.0 °F 74% 29.91 in 10.0 mi ESE 3.5 mph - N/A   Clear
7:53 PM 73.9 °F - 71.1 °F 91% 29.91 in 10.0 mi Calm Calm - N/A   Clear
8:53 PM 72.0 °F - 69.1 °F 91% 29.93 in 10.0 mi East 4.6 mph - N/A   Clear
9:53 PM 73.0 °F - 70.0 °F 90% 29.94 in 10.0 mi East 4.6 mph - N/A   Overcast
10:53 PM 73.9 °F - 71.1 °F 91% 29.94 in 10.0 mi East 4.6 mph - N/A   Mostly Cloudy
11:53 PM 72.0 °F - 70.0 °F 93% 29.94 in 10.0 mi East 4.6 mph - N/A   Clear